COSMOS 1275 DEB, 19047

Orbit data source: Space-Track

COSMOS 1275 DEB, 19047 is space debris in LEO originally from a launch on Thu, 04 Jun 1981 UTC launched from the Plesetsk Missile And Space Complex (PKMTR). Debris objects in space refer to the collection of defunct objects orbiting the Earth. Examples of debris include non-operational satellites, rocket bodies, and fragments generated from explosions, collisions, or faulty payload assembly.

Loading next visibility...
Identifier
19047, 1981-053MF
Orbit
LEO
Country
Flag of CISCIS
Related business
Manufacturer
Unknown
Mission
Spacecraft
Bus & Motor
Unknown
Mass
Unknown
Launch date (UTC)
1981-06-04 (44 years ago)
Launch vehicle
Unknown
Launch site
Plesetsk Missile And Space Complex (PKMTR)
Object type
Payload
Rocket body
Debris
Shape & HBR
Unknown shape, 0.1 m
Radar Cross Section
Small (<0.1 m²)

Expand to show TLE details & history
Last TLE update: 18 hours ago

TLE from 18 hours ago
0 COSMOS 1275 DEB
1 19047U 81053MF  25288.99259166  .00004532  00000-0  20643-2 0  9991
2 19047  82.7793 118.9087 0028117 281.3755 232.8354 14.21295828 69737
Epoch: 2025-10-15T23:49Z
TLE epoch observation values (Epoch: 2025-10-15T23:49:19.919Z)
Latitude
25.85603°
Longitude
-86.68457°
Altitude
836.42 km
Speed
7.431 km/s
True Right ascension
19h 41m 37s
True Declination
25° 43' 22"
Sunlit
Object was in daylight at epoch
Visualization orbit readout
Latitude
Unknown
Longitude
Unknown
Altitude
Unknown
Speed
Unknown
Apparent Right ascension
Unknown
Apparent Declination
Unknown
Sunlit
N/A
Visualization observer readout
Local Sidereal Time
12:35:43
Azimuth
Unknown
Elevation
Unknown
Doppler factor
Unknown
Orbital elements
Apogee altitude
838.299 km
Perigee altitude
797.832 km
Semi-major axis
7,196.202 km
Eccentricity
0.00281
Inclination
82.7793°
RAAN
118.9087°
Arg. of periapsis
281.3755°
True anomaly
232.57918°
Mean anomaly
232.8354°
Eccentric anomaly
232.70724°
Mean motion
3.5554 °/min
Orbital period
101.25 mins
BSTAR
0.0020643
Loading maneuver chart data...
Computing Atmospheric mass density...

Documentation

Showing up to 5 results
|